DW4362 Weather Reports


time (UTC)temp
C
wind
direction
speed
KPH
gust
KPH
rain 1hr
cm
rain 24hr
cm
rain mn
cm
humidity
%
barometer
mb
20260901143216 30 15 0.0 0.0 0.00 0.00 0.00 81 1017.3
20260901133216 26 6 0.0 3.2 0.00 0.00 0.00 95 1017.3
20260901130216 25 8 0.0 0.0 0.00 0.00 0.00 95 1017.3
20260901123215 24 89 0.0 0.0 0.00 0.00 0.00 95 1017.3
20260901120215 23 6 0.0 0.0 0.00 0.00 0.00 95 1017.1
20260901113215 23 68 0.0 0.0 0.00 0.03 0.00 94 1016.5
20260901103215 23 91 0.0 0.0 0.00 0.03 0.00 94 1015.7
20260901100215 23 91 0.0 0.0 0.00 0.03 0.00 94 1015.7
20260901093215 23 91 0.0 0.0 0.00 0.03 0.00 94 1015.5
20260901090215 23 91 0.0 0.0 0.00 0.03 0.00 94 1015.5
20260901083215 23 91 0.0 0.0 0.00 0.03 0.00 94 1015.6
20260901080215 23 91 0.0 0.0 0.00 0.03 0.00 94 1015.5
20260901073215 23 91 0.0 0.0 0.00 0.03 0.00 94 1015.7
20260901063215 23 91 0.0 0.0 0.00 0.03 0.00 95 1015.8
20260901060214 23 91 0.0 0.0 0.00 0.03 0.00 95 1015.9
20260901053214 24 91 0.0 0.0 0.00 0.03 0.00 95 1016.1
20260901050214 24 91 0.0 0.0 0.00 0.03 0.00 95 1016.1
20260901043214 24 91 0.0 0.0 0.00 0.03 0.03 95 1016.2
20260901040214 25 91 0.0 0.0 0.00 0.03 0.03 95 1016.2
20260901033214 25 91 0.0 0.0 0.00 0.03 0.03 95 1016.4
20260901030214 25 91 0.0 0.0 0.00 0.03 0.03 95 1016.2
20260901023214 25 91 0.0 0.0 0.00 0.03 0.03 95 1016.3
20260901020214 25 91 0.0 0.0 0.00 0.03 0.03 94 1016.1
20260901013213 26 91 0.0 0.0 0.00 0.03 0.03 93 1015.9
20260901010213 26 92 0.0 0.0 0.00 0.03 0.03 91 1015.5
20260901000213 28 153 0.0 0.0 0.00 0.03 0.03 85 1015.0
20260831233213 28 190 4.8 4.8 0.00 0.03 0.03 83 1015.0
20260831230213 29 153 0.0 4.8 0.00 0.03 0.03 83 1015.2
20260831223213 29 220 3.2 4.8 0.00 0.03 0.03 84 1015.1
20260831220213 29 173 0.0 3.2 0.00 0.03 0.03 83 1015.2
20260831213213 29 137 0.0 3.2 0.00 0.03 0.03 84 1015.4
20260831210217 28 176 0.0 3.2 0.00 0.03 0.03 82 1015.5
20260831203212 29 172 0.0 0.0 0.00 0.03 0.03 80 1015.7
20260831200212 30 203 0.0 0.0 0.00 0.03 0.03 78 1015.8
20260831193213 31 148 0.0 0.0 0.00 0.03 0.03 74 1016.1
20260831183212 32 188 0.0 0.0 0.00 0.03 0.03 64 1016.2
20260831180213 32 238 3.2 12.9 0.00 0.08 0.03 66 1016.5
20260831173212 32 358 3.2 3.2 0.00 0.08 0.03 67 1016.9
20260831170212 33 136 4.8 12.9 0.00 0.08 0.03 64 1017.1
20260831163212 31 11 0.0 0.0 0.00 0.08 0.03 73 1017.3
20260831160212 31 315 0.0 0.0 0.00 0.08 0.03 74 1017.5
20260831150212 30 136 4.8 9.7 0.00 0.08 0.03 77 1017.5